User: anonymous   Login
Location: Niagara
(43.2500°N, 79.0670°W)
Time: 03:03:58
(UTC-04:00)
Language:

Hubble Space Telescope - Orbit

View from above orbital plane
View from above orbital plane
View from above satellite
View from above satellite

Ground track
Ground track

The orbit data is extracted from the following two-line orbital elements,

1 20580U 90037B   18196.69452146  .00000378  00000-0  12121-4 0  9995
2 20580  28.4694 286.6565 0002947  86.5802  40.7154 15.09065195349782
Epoch (UTC): 15 July 2018 16:40:06
Eccentricity: 0.0002947
inclination: 28.4694°
perigee height: 537 km
apogee height: 541 km
right ascension of ascending node: 286.6565°
argument of perigee: 86.5802°
revolutions per day: 15.09065195
mean anomaly at epoch: 40.7154°
orbit number at epoch: 34978

The dashed part of the orbit path shows where the satellite is in the earth's shadow,  

DLR